COSMOS 1372

Satellite information

Favourite Embed

Satellite Type and Status

PAYLOADIN ORBIT

Key statistics

Satellite COSMOS 1372 at a glance.

Uptime

15681

Days in orbit

Revolutions

≈ 13.9

Per day

Orbit

LEO

Low Earth Orbit

Inclination

64.9

Latest

Satellite identification and parameters

Extended collection of information and parameters for COSMOS 1372.

Object identification

Identified? True

Debris? False

Object name: COSMOS 1372

International designator: 1982-052A

Object number (NORAD): 13243

Object ID (CCSDS): 13243

Country: COMMONWEALTH OF INDEPENDENT STATES (CIS)

Current information (Y/N): Y

RCS size: LARGE

Orbital parameters

Period: 103.89 minutes

Inclination: 64.903 deg

SMA: 7320.509 km

Apoapsis: 959.302 km

Periapsis: 925.446 km

RAAN: 228.4688 deg

Eccentricy: 0.0023124

Argument of periapsis: 23.973 deg

Mean anomaly: 336.2402 deg

Mean motion: 13.86088091 rev/day

Mean motion (dot): -0.00000064 rev/day2

B* drag term: 0.000022542 1/REarth

Two-line elements (TLE)

Creation date: May 7, 2025, 3:14 a.m.

Reference frame: TEME

Reference center: EARTH

Epoch: May 6, 2025, 3:15 p.m. UTC

TLE line 0: 0 COSMOS 1372

TLE line 1: 1 13243U 82052A 25126.63590390 -.00000064 00000-0 22542-4 0 9991

TLE line 2: 2 13243 64.9030 228.4688 0023124 23.9730 336.2402 13.86088091589951

Live tracking on map

Real-time ground track for satellite COSMOS 1372.

In-orbit conjunctions

A list of the most updated potential collisions computed for object COSMOS 1372.

Target Orbit TCA Probability of collision Miss distance Type
COSMOS 1275 DEB LEO 2025-02-14 08:34:50 0.0004195071 173.0 (m) DEBRIS
CZ-6A DEB SSO 2024-06-03 16:59:08 0.002063335 72.0 (m) DEBRIS

Associated space launch

Active radar satellite for ocean surveillance powered by a nuclear reactor.

COSMOS 1372 was lifted into orbit during the mission ‘Tsiklon-2 | US-A 21’, on board a Tsiklon-2 space rocket.

The launch took place on June 1, 1982, 1:58 p.m. from 90.

For more information about the launch, click the button.

Launch to space Tsiklon-2 | US-A 21
Tsiklon-2 | US-A 21

Agency: N/A

Status: Launch Successful

Launch date: June 1, 1982, 1:58 p.m. UTC

Rocket: Tsiklon-2

Launch pad: 90

Location: Baikonur Cosmodrome, Republic of Kazakhstan

...

Latest news about this satellite

There are no fresh news available about this satellite. Check back as we update our databases every day.


Newsletter sign-up

Weekly statistics, charts and insights to help you stay on top of the space industry.